Flag for Canada Weather past 2 weeks in Alert, Nunavut Territory, Canada

Now
-4 °F

Sunny.


Feels Like: -4 °F
Forecast: -16 / 0 °F
Wind: No wind

Location: Alert Airport


UV Index: 0 (Low)

Visibility: 15 mi


Pressure: 30.48 "Hg

Humidity: 71%

Dew point: -11 °F

Location of AlertLocation

Historic Weather in Alert

°F

Alert temperature yesterday

Maximum temperature yesterday: -2 °F (at 4:00 PM)
Minimum temperature yesterday: -13 °F (at 1:00 AM)
Average temperature yesterday: -7 °F

Past Weeks' High & Low Weather Summary

 TemperatureHumidityPressure
High12 °F (Apr 14, 6:00 PM)100% (Apr 14, 8:00 AM)30.48 "Hg (Apr 14, 8:00 AM)
Low-29 °F (Apr 9, 6:00 PM)61% (Apr 10, 10:00 AM)29.41 "Hg (Apr 14, 6:00 PM)
Average-9 °F73%29.90 "Hg
* Reported Apr 9 11:00 AM — Apr 24 11:00 AM, Alert, Weather by CustomWeather, © 2014

Note: Actual official high and low records may vary slightly from our data, if they occured in-between our weather recording intervals... More about our weather records

Advertising

Historic Weather Conditions — Data for Previous 24 hours

 ConditionsComfort  
Time TempWeatherWind HumidityBarometerVisibility
11:00 AM
Apr 24
-6 °FPassing clouds.3 mph70%30.48 "Hg15 mi
10:00 AM-6 °FSunny.2 mph70%30.47 "Hg15 mi
9:00 AM-8 °FSunny.No wind70%30.46 "Hg15 mi
8:00 AM-9 °FSunny.2 mph77%30.46 "Hg15 mi
7:00 AM-8 °FSunny.2 mph70%30.44 "Hg15 mi
6:00 AM-8 °FSunny.No wind70%30.43 "Hg15 mi
5:00 AM-11 °FSunny.2 mph76%30.42 "Hg15 mi
4:00 AM-9 °FSunny.No wind70%30.41 "Hg15 mi
3:00 AM-11 °FPassing clouds.2 mph70%30.40 "Hg15 mi
2:00 AM-11 °FScattered clouds.8 mph76%30.39 "Hg11 mi
1:00 AM-8 °FLight snow. Partly sunny.7 mph70%30.38 "Hg11 mi
12:54 AMN/ALight snow.7 mphN/AN/A11 mi
12:00 AM-8 °FPartly sunny.6 mph70%30.37 "Hg15 mi
11:00 PM
Apr 23
-9 °FPartly sunny.8 mph70%30.36 "Hg15 mi
9:00 PM-9 °FPartly sunny.7 mph77%30.33 "Hg15 mi
8:00 PM-6 °FBroken clouds.6 mph70%30.32 "Hg15 mi
7:00 PM-4 °FPassing clouds.2 mph71%30.31 "Hg15 mi
6:00 PM-2 °FPassing clouds.2 mph65%30.29 "Hg15 mi
5:00 PM-2 °FPassing clouds.3 mph65%30.28 "Hg15 mi
4:00 PM-2 °FSunny.10 mph71%30.27 "Hg15 mi
2:00 PM-4 °FSunny.9 mph71%30.24 "Hg15 mi
1:00 PM-6 °FSunny.5 mph70%30.24 "Hg15 mi
Weather by CustomWeather, © 2014

See weather overview